Time,TemperatureF,DewpointF,PressureIn,WindDirection,WindDirectionDegrees,WindSpeedMPH,WindSpeedGustMPH,Humidity,HourlyPrecipIn,Conditions,Clouds,dailyrainin,SoftwareType,DateUTC
2013-01-27 00:00:00,24.0,20.1,30.39,ENE,67,0.0,10.0,85,0.00,,,0.00,Weather View 32 v70,2013-01-27 05:00:00,
2013-01-27 00:01:00,24.0,20.1,30.39,East,90,4.0,10.0,85,0.00,,,0.00,Weather View 32 v70,2013-01-27 05:01:00,
2013-01-27 00:02:00,24.0,20.1,30.39,ESE,112,4.0,10.0,85,0.00,,,0.00,Weather View 32 v70,2013-01-27 05:02:00,
2013-01-27 00:07:00,24.0,20.1,30.39,East,90,1.0,10.0,85,0.00,,,0.00,Weather View 32 v70,2013-01-27 05:07:00,
2013-01-27 00:15:00,24.0,20.1,30.38,ESE,112,5.0,10.0,85,0.00,,,0.00,Weather View 32 v70,2013-01-27 05:15:00,
2013-01-27 00:20:00,24.0,20.4,30.37,SE,135,4.0,10.0,86,0.00,,,0.00,Weather View 32 v70,2013-01-27 05:20:00,
2013-01-27 00:25:00,24.0,20.4,30.36,ESE,112,5.0,10.0,86,0.00,,,0.00,Weather View 32 v70,2013-01-27 05:25:00,
2013-01-27 00:30:00,24.0,20.1,30.36,SE,135,2.0,10.0,85,0.00,,,0.00,Weather View 32 v70,2013-01-27 05:30:00,
2013-01-27 00:39:00,24.0,19.9,30.36,ESE,112,1.0,8.0,84,0.00,,,0.00,Weather View 32 v70,2013-01-27 05:39:00,
2013-01-27 00:45:00,24.0,20.1,30.36,East,90,0.0,8.0,85,0.00,,,0.00,Weather View 32 v70,2013-01-27 05:45:00,
2013-01-27 00:50:00,24.0,20.4,30.36,ESE,112,3.0,8.0,86,0.00,,,0.00,Weather View 32 v70,2013-01-27 05:50:00,
2013-01-27 00:55:00,24.0,20.4,30.37,ESE,112,4.0,8.0,86,0.00,,,0.00,Weather View 32 v70,2013-01-27 05:55:00,
2013-01-27 01:00:00,24.0,20.4,30.37,ESE,112,4.0,8.0,86,0.00,,,0.00,Weather View 32 v70,2013-01-27 06:00:00,
2013-01-27 01:05:00,24.0,20.1,30.37,SE,135,3.0,8.0,85,0.00,,,0.00,Weather View 32 v70,2013-01-27 06:05:00,
2013-01-27 01:10:00,24.0,20.1,30.36,East,90,6.0,8.0,85,0.00,,,0.00,Weather View 32 v70,2013-01-27 06:10:00,
2013-01-27 01:15:00,24.0,20.4,30.37,East,90,0.0,8.0,86,0.00,,,0.00,Weather View 32 v70,2013-01-27 06:15:00,
2013-01-27 01:24:00,24.0,20.1,30.37,East,90,0.0,8.0,85,0.00,,,0.00,Weather View 32 v70,2013-01-27 06:24:00,
2013-01-27 01:30:00,23.0,19.2,30.38,East,90,0.0,8.0,85,0.00,,,0.00,Weather View 32 v70,2013-01-27 06:30:00,
2013-01-27 01:35:00,23.0,19.4,30.38,East,90,0.0,7.0,86,0.00,,,0.00,Weather View 32 v70,2013-01-27 06:35:00,
2013-01-27 01:40:00,23.0,20.0,30.37,NE,45,3.0,7.0,88,0.00,,,0.00,Weather View 32 v70,2013-01-27 06:40:00,
2013-01-27 01:45:00,23.0,20.2,30.37,ENE,67,1.0,7.0,89,0.00,,,0.00,Weather View 32 v70,2013-01-27 06:45:00,
2013-01-27 01:50:00,23.0,20.2,30.36,ENE,67,0.0,7.0,89,0.00,,,0.00,Weather View 32 v70,2013-01-27 06:50:00,
2013-01-27 01:59:00,22.0,19.5,30.36,East,90,2.0,7.0,90,0.00,,,0.00,Weather View 32 v70,2013-01-27 06:59:00,
2013-01-27 02:04:00,22.0,19.8,30.36,East,90,2.0,7.0,91,0.00,,,0.00,Weather View 32 v70,2013-01-27 07:04:00,
2013-01-27 02:15:00,23.0,20.5,30.36,East,90,4.0,6.0,90,0.00,,,0.00,Weather View 32 v70,2013-01-27 07:15:00,
2013-01-27 02:20:00,23.0,20.5,30.36,NE,45,0.0,6.0,90,0.00,,,0.00,Weather View 32 v70,2013-01-27 07:20:00,
2013-01-27 02:25:00,23.0,20.5,30.36,East,90,1.0,6.0,90,0.00,,,0.00,Weather View 32 v70,2013-01-27 07:25:00,
2013-01-27 02:30:00,23.0,20.5,30.36,SE,135,2.0,6.0,90,0.00,,,0.00,Weather View 32 v70,2013-01-27 07:30:00,
2013-01-27 02:35:00,23.0,20.5,30.37,East,90,5.0,6.0,90,0.00,,,0.00,Weather View 32 v70,2013-01-27 07:35:00,
2013-01-27 02:40:00,23.0,20.5,30.37,East,90,3.0,6.0,90,0.00,,,0.00,Weather View 32 v70,2013-01-27 07:40:00,
2013-01-27 02:45:00,23.0,20.5,30.37,East,90,2.0,6.0,90,0.00,,,0.00,Weather View 32 v70,2013-01-27 07:45:00,
2013-01-27 02:50:00,23.0,20.5,30.37,ESE,112,1.0,6.0,90,0.00,,,0.00,Weather View 32 v70,2013-01-27 07:50:00,
2013-01-27 02:55:00,23.0,20.5,30.37,ESE,112,1.0,6.0,90,0.00,,,0.00,Weather View 32 v70,2013-01-27 07:55:00,
2013-01-27 03:00:00,23.0,20.5,30.37,SE,135,2.0,6.0,90,0.00,,,0.00,Weather View 32 v70,2013-01-27 08:00:00,
2013-01-27 03:05:00,23.0,20.5,30.37,SE,135,1.0,6.0,90,0.00,,,0.00,Weather View 32 v70,2013-01-27 08:05:00,
2013-01-27 03:10:00,23.0,20.8,30.36,East,90,2.0,6.0,91,0.00,,,0.00,Weather View 32 v70,2013-01-27 08:10:00,
2013-01-27 03:15:00,23.0,21.0,30.36,ESE,112,3.0,6.0,92,0.00,,,0.00,Weather View 32 v70,2013-01-27 08:15:00,
2013-01-27 03:20:00,23.0,21.0,30.36,ESE,112,0.0,6.0,92,0.00,,,0.00,Weather View 32 v70,2013-01-27 08:20:00,
2013-01-27 03:25:00,23.0,20.8,30.36,East,90,0.0,6.0,91,0.00,,,0.00,Weather View 32 v70,2013-01-27 08:25:00,
2013-01-27 03:30:00,23.0,20.8,30.36,ESE,112,2.0,6.0,91,0.00,,,0.00,Weather View 32 v70,2013-01-27 08:30:00,
2013-01-27 03:35:00,23.0,20.8,30.36,East,90,2.0,6.0,91,0.00,,,0.00,Weather View 32 v70,2013-01-27 08:35:00,
2013-01-27 03:40:00,23.0,21.0,30.36,East,90,1.0,7.0,92,0.00,,,0.00,Weather View 32 v70,2013-01-27 08:40:00,
2013-01-27 03:45:00,23.0,20.8,30.36,SE,135,5.0,7.0,91,0.00,,,0.00,Weather View 32 v70,2013-01-27 08:45:00,
2013-01-27 03:50:00,23.0,20.8,30.36,SE,135,2.0,7.0,91,0.00,,,0.00,Weather View 32 v70,2013-01-27 08:50:00,
2013-01-27 03:55:00,23.0,21.0,30.36,SE,135,4.0,7.0,92,0.00,,,0.00,Weather View 32 v70,2013-01-27 08:55:00,
2013-01-27 04:00:00,23.0,21.0,30.35,ESE,112,6.0,7.0,92,0.00,,,0.00,Weather View 32 v70,2013-01-27 09:00:00,
2013-01-27 04:05:00,23.0,20.8,30.35,SE,135,4.0,7.0,91,0.00,,,0.00,Weather View 32 v70,2013-01-27 09:05:00,
2013-01-27 04:10:00,23.0,21.0,30.35,ENE,67,1.0,7.0,92,0.00,,,0.00,Weather View 32 v70,2013-01-27 09:10:00,
2013-01-27 04:15:00,23.0,20.8,30.34,SE,135,3.0,7.0,91,0.00,,,0.00,Weather View 32 v70,2013-01-27 09:15:00,
2013-01-27 04:20:00,23.0,21.0,30.34,ESE,112,2.0,7.0,92,0.00,,,0.00,Weather View 32 v70,2013-01-27 09:20:00,
2013-01-27 04:25:00,23.0,21.0,30.34,SE,135,3.0,7.0,92,0.00,,,0.00,Weather View 32 v70,2013-01-27 09:25:00,
2013-01-27 04:30:00,23.0,21.0,30.34,ESE,112,2.0,7.0,92,0.00,,,0.00,Weather View 32 v70,2013-01-27 09:30:00,
2013-01-27 04:35:00,23.0,21.0,30.34,ESE,112,2.0,7.0,92,0.00,,,0.00,Weather View 32 v70,2013-01-27 09:35:00,
2013-01-27 04:40:00,23.0,21.0,30.35,SE,135,4.0,7.0,92,0.00,,,0.00,Weather View 32 v70,2013-01-27 09:40:00,
2013-01-27 04:45:00,23.0,21.0,30.34,East,90,2.0,7.0,92,0.00,,,0.00,Weather View 32 v70,2013-01-27 09:45:00,
2013-01-27 04:50:00,23.0,21.3,30.34,East,90,6.0,7.0,93,0.00,,,0.00,Weather View 32 v70,2013-01-27 09:50:00,
2013-01-27 04:55:00,23.0,21.3,30.34,East,90,1.0,7.0,93,0.00,,,0.00,Weather View 32 v70,2013-01-27 09:55:00,
2013-01-27 05:00:00,23.0,21.3,30.34,ESE,112,3.0,7.0,93,0.00,,,0.00,Weather View 32 v70,2013-01-27 10:00:00,
2013-01-27 05:05:00,22.0,20.3,30.34,East,90,0.0,7.0,93,0.00,,,0.00,Weather View 32 v70,2013-01-27 10:05:00,
2013-01-27 05:10:00,22.0,20.3,30.34,East,90,1.0,7.0,93,0.00,,,0.00,Weather View 32 v70,2013-01-27 10:10:00,
2013-01-27 05:15:00,22.0,20.5,30.35,ESE,112,0.0,7.0,94,0.00,,,0.00,Weather View 32 v70,2013-01-27 10:15:00,
2013-01-27 05:20:00,22.0,20.5,30.35,ESE,112,1.0,7.0,94,0.00,,,0.00,Weather View 32 v70,2013-01-27 10:20:00,
2013-01-27 05:25:00,22.0,20.5,30.34,ESE,112,1.0,7.0,94,0.00,,,0.00,Weather View 32 v70,2013-01-27 10:25:00,
2013-01-27 05:30:00,22.0,20.8,30.35,ESE,112,1.0,7.0,95,0.00,,,0.00,Weather View 32 v70,2013-01-27 10:30:00,
2013-01-27 05:35:00,22.0,21.0,30.35,East,90,0.0,7.0,96,0.00,,,0.00,Weather View 32 v70,2013-01-27 10:35:00,
2013-01-27 05:40:00,22.0,21.0,30.35,East,90,2.0,7.0,96,0.00,,,0.00,Weather View 32 v70,2013-01-27 10:40:00,
2013-01-27 05:45:00,22.0,21.0,30.35,ESE,112,3.0,7.0,96,0.00,,,0.00,Weather View 32 v70,2013-01-27 10:45:00,
2013-01-27 05:50:00,22.0,21.0,30.34,East,90,0.0,7.0,96,0.00,,,0.00,Weather View 32 v70,2013-01-27 10:50:00,
2013-01-27 05:55:00,22.0,20.8,30.34,ESE,112,1.0,7.0,95,0.00,,,0.00,Weather View 32 v70,2013-01-27 10:55:00,
2013-01-27 06:00:00,22.0,20.8,30.34,SE,135,2.0,5.0,95,0.00,,,0.00,Weather View 32 v70,2013-01-27 11:00:00,
2013-01-27 06:05:00,22.0,21.0,30.34,ESE,112,0.0,6.0,96,0.00,,,0.00,Weather View 32 v70,2013-01-27 11:05:00,
2013-01-27 06:10:00,22.0,20.8,30.34,ESE,112,2.0,6.0,95,0.00,,,0.00,Weather View 32 v70,2013-01-27 11:10:00,
2013-01-27 06:15:00,22.0,20.8,30.35,ENE,67,1.0,7.0,95,0.00,,,0.00,Weather View 32 v70,2013-01-27 11:15:00,
2013-01-27 06:20:00,23.0,22.0,30.35,East,90,1.0,7.0,96,0.00,,,0.00,Weather View 32 v70,2013-01-27 11:20:00,
2013-01-27 06:25:00,23.0,21.8,30.35,ESE,112,3.0,7.0,95,0.00,,,0.00,Weather View 32 v70,2013-01-27 11:25:00,
2013-01-27 06:30:00,23.0,21.8,30.35,SE,135,5.0,7.0,95,0.00,,,0.00,Weather View 32 v70,2013-01-27 11:30:00,
2013-01-27 06:35:00,23.0,21.8,30.34,East,90,1.0,7.0,95,0.00,,,0.00,Weather View 32 v70,2013-01-27 11:35:00,
2013-01-27 06:40:00,23.0,21.8,30.34,East,90,3.0,7.0,95,0.00,,,0.00,Weather View 32 v70,2013-01-27 11:40:00,
2013-01-27 06:45:00,23.0,21.8,30.35,ESE,112,2.0,7.0,95,0.00,,,0.00,Weather View 32 v70,2013-01-27 11:45:00,
2013-01-27 06:50:00,23.0,21.5,30.35,East,90,2.0,7.0,94,0.00,,,0.00,Weather View 32 v70,2013-01-27 11:50:00,
2013-01-27 06:55:00,23.0,21.8,30.34,East,90,0.0,7.0,95,0.00,,,0.00,Weather View 32 v70,2013-01-27 11:55:00,
2013-01-27 07:00:00,23.0,21.8,30.35,East,90,5.0,7.0,95,0.00,,,0.00,Weather View 32 v70,2013-01-27 12:00:00,
2013-01-27 07:05:00,23.0,21.8,30.35,East,90,0.0,7.0,95,0.00,,,0.00,Weather View 32 v70,2013-01-27 12:05:00,
2013-01-27 07:10:00,23.0,21.8,30.35,ENE,67,0.0,7.0,95,0.00,,,0.00,Weather View 32 v70,2013-01-27 12:10:00,
2013-01-27 07:15:00,23.0,22.0,30.35,East,90,1.0,7.0,96,0.00,,,0.00,Weather View 32 v70,2013-01-27 12:15:00,
2013-01-27 07:20:00,24.0,22.8,30.36,East,90,0.0,7.0,95,0.00,,,0.00,Weather View 32 v70,2013-01-27 12:20:00,
2013-01-27 07:25:00,24.0,22.8,30.35,ESE,112,2.0,7.0,95,0.00,,,0.00,Weather View 32 v70,2013-01-27 12:25:00,
2013-01-27 07:30:00,24.0,22.8,30.35,SE,135,3.0,7.0,95,0.00,,,0.00,Weather View 32 v70,2013-01-27 12:30:00,
2013-01-27 07:35:00,24.0,22.8,30.36,ENE,67,3.0,7.0,95,0.00,,,0.00,Weather View 32 v70,2013-01-27 12:35:00,
2013-01-27 07:40:00,24.0,22.5,30.35,East,90,7.0,7.0,94,0.00,,,0.00,Weather View 32 v70,2013-01-27 12:40:00,
2013-01-27 07:45:00,24.0,22.5,30.36,ENE,67,3.0,7.0,94,0.00,,,0.00,Weather View 32 v70,2013-01-27 12:45:00,
2013-01-27 07:50:00,24.0,22.5,30.36,SE,135,3.0,7.0,94,0.00,,,0.00,Weather View 32 v70,2013-01-27 12:50:00,
2013-01-27 07:55:00,24.0,22.5,30.36,East,90,0.0,7.0,94,0.00,,,0.00,Weather View 32 v70,2013-01-27 12:55:00,
2013-01-27 08:00:00,24.0,22.5,30.36,ESE,112,2.0,7.0,94,0.00,,,0.00,Weather View 32 v70,2013-01-27 13:00:00,
2013-01-27 08:05:00,24.0,22.8,30.36,SE,135,5.0,7.0,95,0.00,,,0.00,Weather View 32 v70,2013-01-27 13:05:00,
2013-01-27 08:10:00,24.0,22.8,30.36,ESE,112,0.0,7.0,95,0.00,,,0.00,Weather View 32 v70,2013-01-27 13:10:00,
2013-01-27 08:15:00,24.0,22.8,30.35,East,90,6.0,7.0,95,0.00,,,0.00,Weather View 32 v70,2013-01-27 13:15:00,
2013-01-27 08:20:00,25.0,23.5,30.35,ESE,112,1.0,7.0,94,0.00,,,0.00,Weather View 32 v70,2013-01-27 13:20:00,
2013-01-27 08:25:00,25.0,23.5,30.35,SE,135,4.0,7.0,94,0.00,,,0.00,Weather View 32 v70,2013-01-27 13:25:00,
2013-01-27 08:30:00,25.0,23.5,30.36,SE,135,3.0,7.0,94,0.00,,,0.00,Weather View 32 v70,2013-01-27 13:30:00,
2013-01-27 08:35:00,25.0,23.5,30.36,SE,135,2.0,7.0,94,0.00,,,0.00,Weather View 32 v70,2013-01-27 13:35:00,
2013-01-27 08:40:00,25.0,23.5,30.35,East,90,5.0,7.0,94,0.00,,,0.00,Weather View 32 v70,2013-01-27 13:40:00,
2013-01-27 08:45:00,25.0,23.5,30.35,ESE,112,6.0,7.0,94,0.00,,,0.00,Weather View 32 v70,2013-01-27 13:45:00,
2013-01-27 08:50:00,25.0,23.5,30.35,SE,135,7.0,9.0,94,0.00,,,0.00,Weather View 32 v70,2013-01-27 13:50:00,
2013-01-27 08:55:00,25.0,23.5,30.36,ENE,67,1.0,9.0,94,0.00,,,0.00,Weather View 32 v70,2013-01-27 13:55:00,
2013-01-27 09:00:00,26.0,25.0,30.36,ESE,112,5.0,9.0,96,0.00,,,0.00,Weather View 32 v70,2013-01-27 14:00:00,
2013-01-27 09:05:00,26.0,24.5,30.36,East,90,1.0,9.0,94,0.00,,,0.00,Weather View 32 v70,2013-01-27 14:05:00,
2013-01-27 09:10:00,26.0,24.3,30.36,ESE,112,3.0,9.0,93,0.00,,,0.00,Weather View 32 v70,2013-01-27 14:10:00,
2013-01-27 09:15:00,27.0,25.5,30.36,ENE,67,2.0,9.0,94,0.00,,,0.00,Weather View 32 v70,2013-01-27 14:15:00,
2013-01-27 09:20:00,27.0,25.0,30.36,ESE,112,5.0,9.0,92,0.00,,,0.00,Weather View 32 v70,2013-01-27 14:20:00,
2013-01-27 09:25:00,27.0,24.5,30.35,East,90,6.0,9.0,90,0.00,,,0.00,Weather View 32 v70,2013-01-27 14:25:00,
2013-01-27 09:30:00,27.0,24.5,30.35,SE,135,3.0,9.0,90,0.00,,,0.00,Weather View 32 v70,2013-01-27 14:30:00,
2013-01-27 09:35:00,28.0,25.4,30.35,ESE,112,2.0,9.0,90,0.00,,,0.00,Weather View 32 v70,2013-01-27 14:35:00,
2013-01-27 09:39:00,28.0,25.2,30.35,SE,135,5.0,9.0,89,0.00,,,0.00,Weather View 32 v70,2013-01-27 14:39:00,
2013-01-27 09:45:00,29.0,25.6,30.35,SE,135,4.0,9.0,87,0.00,,,0.00,Weather View 32 v70,2013-01-27 14:45:00,
2013-01-27 09:50:00,29.0,25.3,30.35,ESE,112,4.0,9.0,86,0.00,,,0.00,Weather View 32 v70,2013-01-27 14:50:00,
2013-01-27 09:55:00,29.0,25.3,30.35,SSE,157,5.0,9.0,86,0.00,,,0.00,Weather View 32 v70,2013-01-27 14:55:00,
2013-01-27 10:00:00,29.0,25.1,30.35,SE,135,3.0,9.0,85,0.00,,,0.00,Weather View 32 v70,2013-01-27 15:00:00,
2013-01-27 10:05:00,29.0,25.1,30.35,South,180,3.0,14.0,85,0.00,,,0.00,Weather View 32 v70,2013-01-27 15:05:00,
2013-01-27 10:10:00,29.0,25.1,30.36,SE,135,7.0,14.0,85,0.00,,,0.00,Weather View 32 v70,2013-01-27 15:10:00,
2013-01-27 10:15:00,29.0,24.8,30.36,SE,135,3.0,14.0,84,0.00,,,0.00,Weather View 32 v70,2013-01-27 15:15:00,
2013-01-27 10:20:00,30.0,25.8,30.36,ESE,112,5.0,14.0,84,0.00,,,0.00,Weather View 32 v70,2013-01-27 15:20:00,
2013-01-27 10:25:00,30.0,25.5,30.36,SE,135,9.0,14.0,83,0.00,,,0.00,Weather View 32 v70,2013-01-27 15:25:00,
2013-01-27 10:30:00,30.0,25.5,30.36,SE,135,5.0,14.0,83,0.00,,,0.00,Weather View 32 v70,2013-01-27 15:30:00,
2013-01-27 10:35:00,30.0,25.5,30.36,ESE,112,3.0,14.0,83,0.00,,,0.00,Weather View 32 v70,2013-01-27 15:35:00,
2013-01-27 10:40:00,30.0,25.5,30.36,SE,135,4.0,14.0,83,0.00,,,0.00,Weather View 32 v70,2013-01-27 15:40:00,
2013-01-27 10:45:00,30.0,25.5,30.36,East,90,6.0,14.0,83,0.00,,,0.00,Weather View 32 v70,2013-01-27 15:45:00,
2013-01-27 10:50:00,30.0,25.8,30.36,SE,135,4.0,14.0,84,0.00,,,0.00,Weather View 32 v70,2013-01-27 15:50:00,
2013-01-27 10:54:00,30.0,25.2,30.36,ESE,112,2.0,14.0,82,0.00,,,0.00,Weather View 32 v70,2013-01-27 15:54:00,
2013-01-27 11:00:00,31.0,26.1,30.36,East,90,4.0,14.0,82,0.00,,,0.00,Weather View 32 v70,2013-01-27 16:00:00,
2013-01-27 11:05:00,30.0,25.2,30.36,SE,135,6.0,12.0,82,0.00,,,0.00,Weather View 32 v70,2013-01-27 16:05:00,
2013-01-27 11:10:00,31.0,26.1,30.35,ESE,112,5.0,12.0,82,0.00,,,0.00,Weather View 32 v70,2013-01-27 16:10:00,
2013-01-27 11:15:00,31.0,25.9,30.35,SE,135,7.0,12.0,81,0.00,,,0.00,Weather View 32 v70,2013-01-27 16:15:00,
2013-01-27 11:20:00,31.0,25.6,30.35,ESE,112,7.0,12.0,80,0.00,,,0.00,Weather View 32 v70,2013-01-27 16:20:00,
2013-01-27 11:25:00,32.0,26.2,30.35,SE,135,6.0,12.0,79,0.00,,,0.00,Weather View 32 v70,2013-01-27 16:25:00,
2013-01-27 11:30:00,32.0,25.9,30.35,ESE,112,5.0,12.0,78,0.00,,,0.00,Weather View 32 v70,2013-01-27 16:30:00,
2013-01-27 11:35:00,33.0,26.9,30.35,East,90,5.0,12.0,78,0.00,,,0.00,Weather View 32 v70,2013-01-27 16:35:00,
2013-01-27 11:40:00,33.0,26.3,30.35,East,90,2.0,12.0,76,0.00,,,0.00,Weather View 32 v70,2013-01-27 16:40:00,
2013-01-27 11:45:00,33.0,26.3,30.35,ENE,67,3.0,12.0,76,0.00,,,0.00,Weather View 32 v70,2013-01-27 16:45:00,
2013-01-27 11:50:00,33.0,25.9,30.35,SE,135,0.0,12.0,75,0.00,,,0.00,Weather View 32 v70,2013-01-27 16:50:00,
2013-01-27 11:55:00,34.0,26.6,30.35,SSE,157,2.0,12.0,74,0.00,,,0.00,Weather View 32 v70,2013-01-27 16:55:00,
2013-01-27 11:59:00,34.0,26.3,30.35,South,180,4.0,12.0,73,0.00,,,0.00,Weather View 32 v70,2013-01-27 16:59:00,
2013-01-27 12:05:00,34.0,26.3,30.35,SSW,202,3.0,12.0,73,0.00,,,0.00,Weather View 32 v70,2013-01-27 17:05:00,
2013-01-27 12:10:00,34.0,25.9,30.35,East,90,6.0,12.0,72,0.00,,,0.00,Weather View 32 v70,2013-01-27 17:10:00,
2013-01-27 12:15:00,34.0,26.3,30.35,East,90,6.0,12.0,73,0.00,,,0.00,Weather View 32 v70,2013-01-27 17:15:00,
2013-01-27 12:19:00,34.0,26.3,30.34,SE,135,7.0,12.0,73,0.00,,,0.00,Weather View 32 v70,2013-01-27 17:19:00,
2013-01-27 12:25:00,34.0,26.3,30.34,SE,135,5.0,12.0,73,0.00,,,0.00,Weather View 32 v70,2013-01-27 17:25:00,
2013-01-27 12:30:00,34.0,26.3,30.33,SE,135,5.0,12.0,73,0.00,,,0.00,Weather View 32 v70,2013-01-27 17:30:00,
2013-01-27 12:35:00,35.0,26.9,30.33,SSE,157,3.0,12.0,72,0.00,,,0.00,Weather View 32 v70,2013-01-27 17:35:00,
2013-01-27 12:40:00,35.0,26.9,30.33,SE,135,5.0,12.0,72,0.00,,,0.00,Weather View 32 v70,2013-01-27 17:40:00,
2013-01-27 12:45:00,35.0,26.5,30.32,ESE,112,3.0,10.0,71,0.00,,,0.00,Weather View 32 v70,2013-01-27 17:45:00,
2013-01-27 12:50:00,36.0,27.5,30.32,SE,135,4.0,10.0,71,0.00,,,0.00,Weather View 32 v70,2013-01-27 17:50:00,
2013-01-27 12:55:00,36.0,26.5,30.32,ESE,112,6.0,10.0,68,0.00,,,0.00,Weather View 32 v70,2013-01-27 17:55:00,
2013-01-27 12:59:00,36.0,26.1,30.32,SE,135,3.0,10.0,67,0.00,,,0.00,Weather View 32 v70,2013-01-27 17:59:00,
2013-01-27 13:04:00,36.0,26.1,30.32,SE,135,4.0,10.0,67,0.00,,,0.00,Weather View 32 v70,2013-01-27 18:04:00,
2013-01-27 13:09:00,36.0,26.5,30.32,South,180,3.0,10.0,68,0.00,,,0.00,Weather View 32 v70,2013-01-27 18:09:00,
2013-01-27 13:14:00,36.0,26.5,30.31,SE,135,6.0,10.0,68,0.00,,,0.00,Weather View 32 v70,2013-01-27 18:14:00,
2013-01-27 13:19:00,36.0,26.8,30.31,South,180,3.0,10.0,69,0.00,,,0.00,Weather View 32 v70,2013-01-27 18:19:00,
2013-01-27 13:24:00,36.0,26.8,30.31,ESE,112,2.0,10.0,69,0.00,,,0.00,Weather View 32 v70,2013-01-27 18:24:00,
2013-01-27 13:29:00,37.0,27.4,30.31,East,90,3.0,10.0,68,0.00,,,0.00,Weather View 32 v70,2013-01-27 18:29:00,
2013-01-27 13:34:00,37.0,26.7,30.31,SE,135,4.0,10.0,66,0.00,,,0.00,Weather View 32 v70,2013-01-27 18:34:00,
2013-01-27 13:39:00,37.0,26.7,30.31,East,90,4.0,10.0,66,0.00,,,0.00,Weather View 32 v70,2013-01-27 18:39:00,
2013-01-27 13:44:00,37.0,26.7,30.31,SE,135,5.0,10.0,66,0.00,,,0.00,Weather View 32 v70,2013-01-27 18:44:00,
2013-01-27 13:49:00,37.0,27.1,30.30,SE,135,0.0,10.0,67,0.00,,,0.00,Weather View 32 v70,2013-01-27 18:49:00,
2013-01-27 13:54:00,38.0,27.6,30.30,East,90,3.0,10.0,66,0.00,,,0.00,Weather View 32 v70,2013-01-27 18:54:00,
2013-01-27 13:59:00,38.0,27.6,30.29,SE,135,3.0,10.0,66,0.00,,,0.00,Weather View 32 v70,2013-01-27 18:59:00,
2013-01-27 14:04:00,38.0,27.3,30.29,SE,135,6.0,10.0,65,0.00,,,0.00,Weather View 32 v70,2013-01-27 19:04:00,
2013-01-27 14:09:00,38.0,27.3,30.28,ENE,67,5.0,10.0,65,0.00,,,0.00,Weather View 32 v70,2013-01-27 19:09:00,
2013-01-27 14:14:00,38.0,27.3,30.28,ENE,67,0.0,10.0,65,0.00,,,0.00,Weather View 32 v70,2013-01-27 19:14:00,
2013-01-27 14:19:00,39.0,27.5,30.28,South,180,7.0,10.0,63,0.00,,,0.00,Weather View 32 v70,2013-01-27 19:19:00,
2013-01-27 14:24:00,39.0,27.5,30.27,SE,135,0.0,11.0,63,0.00,,,0.00,Weather View 32 v70,2013-01-27 19:24:00,
2013-01-27 14:29:00,39.0,27.1,30.27,SE,135,3.0,11.0,62,0.00,,,0.00,Weather View 32 v70,2013-01-27 19:29:00,
2013-01-27 14:34:00,39.0,27.1,30.27,SSE,157,5.0,11.0,62,0.00,,,0.00,Weather View 32 v70,2013-01-27 19:34:00,
2013-01-27 14:39:00,39.0,26.7,30.27,SE,135,3.0,11.0,61,0.00,,,0.00,Weather View 32 v70,2013-01-27 19:39:00,
2013-01-27 14:44:00,39.0,26.7,30.26,South,180,2.0,11.0,61,0.00,,,0.00,Weather View 32 v70,2013-01-27 19:44:00,
2013-01-27 14:49:00,39.0,26.7,30.26,SE,135,5.0,11.0,61,0.00,,,0.00,Weather View 32 v70,2013-01-27 19:49:00,
2013-01-27 14:54:00,39.0,27.5,30.25,East,90,4.0,11.0,63,0.00,,,0.00,Weather View 32 v70,2013-01-27 19:54:00,
2013-01-27 14:59:00,39.0,27.8,30.25,ENE,67,2.0,11.0,64,0.00,,,0.00,Weather View 32 v70,2013-01-27 19:59:00,
2013-01-27 15:04:00,39.0,27.5,30.25,SE,135,2.0,11.0,63,0.00,,,0.00,Weather View 32 v70,2013-01-27 20:04:00,
2013-01-27 15:09:00,39.0,27.1,30.25,SE,135,3.0,11.0,62,0.00,,,0.00,Weather View 32 v70,2013-01-27 20:09:00,
2013-01-27 15:14:00,39.0,27.5,30.25,SE,135,7.0,11.0,63,0.00,,,0.00,Weather View 32 v70,2013-01-27 20:14:00,
2013-01-27 15:19:00,39.0,27.8,30.25,SE,135,1.0,11.0,64,0.00,,,0.00,Weather View 32 v70,2013-01-27 20:19:00,
2013-01-27 15:24:00,39.0,27.8,30.24,ESE,112,6.0,9.0,64,0.00,,,0.00,Weather View 32 v70,2013-01-27 20:24:00,
2013-01-27 15:29:00,39.0,27.5,30.24,ESE,112,6.0,9.0,63,0.00,,,0.00,Weather View 32 v70,2013-01-27 20:29:00,
2013-01-27 15:34:00,39.0,27.5,30.25,ESE,112,3.0,9.0,63,0.00,,,0.00,Weather View 32 v70,2013-01-27 20:34:00,
2013-01-27 15:39:00,39.0,27.5,30.25,South,180,3.0,9.0,63,0.00,,,0.00,Weather View 32 v70,2013-01-27 20:39:00,
2013-01-27 15:44:00,39.0,27.1,30.24,SE,135,4.0,9.0,62,0.00,,,0.00,Weather View 32 v70,2013-01-27 20:44:00,
2013-01-27 15:49:00,39.0,27.1,30.24,SE,135,7.0,9.0,62,0.00,,,0.00,Weather View 32 v70,2013-01-27 20:49:00,
2013-01-27 15:54:00,39.0,27.5,30.24,SE,135,5.0,10.0,63,0.00,,,0.00,Weather View 32 v70,2013-01-27 20:54:00,
2013-01-27 15:59:00,39.0,27.5,30.23,SE,135,3.0,10.0,63,0.00,,,0.00,Weather View 32 v70,2013-01-27 20:59:00,
2013-01-27 16:04:00,39.0,27.5,30.23,South,180,6.0,15.0,63,0.00,,,0.00,Weather View 32 v70,2013-01-27 21:04:00,
2013-01-27 16:09:00,39.0,27.8,30.23,SSE,157,1.0,15.0,64,0.00,,,0.00,Weather View 32 v70,2013-01-27 21:09:00,
2013-01-27 16:14:00,39.0,27.8,30.23,ESE,112,5.0,15.0,64,0.00,,,0.00,Weather View 32 v70,2013-01-27 21:14:00,
2013-01-27 16:19:00,39.0,27.8,30.23,SE,135,4.0,15.0,64,0.00,,,0.00,Weather View 32 v70,2013-01-27 21:19:00,
2013-01-27 16:24:00,39.0,28.2,30.23,SE,135,7.0,15.0,65,0.00,,,0.00,Weather View 32 v70,2013-01-27 21:24:00,
2013-01-27 16:29:00,39.0,28.2,30.23,SSE,157,4.0,15.0,65,0.00,,,0.00,Weather View 32 v70,2013-01-27 21:29:00,
2013-01-27 16:34:00,39.0,28.6,30.23,SE,135,2.0,15.0,66,0.00,,,0.00,Weather View 32 v70,2013-01-27 21:34:00,
2013-01-27 16:39:00,39.0,29.7,30.23,SE,135,1.0,15.0,69,0.00,,,0.00,Weather View 32 v70,2013-01-27 21:39:00,
2013-01-27 16:44:00,39.0,30.4,30.23,ENE,67,5.0,15.0,71,0.00,,,0.00,Weather View 32 v70,2013-01-27 21:44:00,
2013-01-27 16:49:00,38.0,30.8,30.23,ESE,112,6.0,15.0,75,0.00,,,0.00,Weather View 32 v70,2013-01-27 21:49:00,
2013-01-27 16:54:00,38.0,31.7,30.23,ESE,112,2.0,15.0,78,0.00,,,0.00,Weather View 32 v70,2013-01-27 21:54:00,
2013-01-27 16:59:00,38.0,32.7,30.22,SSE,157,3.0,15.0,81,0.00,,,0.00,Weather View 32 v70,2013-01-27 21:59:00,
2013-01-27 17:04:00,38.0,33.6,30.23,SSE,157,3.0,12.0,84,0.00,,,0.00,Weather View 32 v70,2013-01-27 22:04:00,
2013-01-27 17:09:00,37.0,33.5,30.22,SE,135,2.0,12.0,87,0.01,,,0.01,Weather View 32 v70,2013-01-27 22:09:00,
2013-01-27 17:14:00,37.0,34.3,30.22,East,90,5.0,12.0,90,0.01,,,0.01,Weather View 32 v70,2013-01-27 22:14:00,
2013-01-27 17:19:00,37.0,34.6,30.22,ESE,112,1.0,9.0,91,0.01,,,0.01,Weather View 32 v70,2013-01-27 22:19:00,
2013-01-27 17:24:00,37.0,35.2,30.22,SSE,157,2.0,9.0,93,0.00,,,0.02,Weather View 32 v70,2013-01-27 22:24:00,
2013-01-27 17:29:00,37.0,35.7,30.22,SE,135,5.0,9.0,95,0.00,,,0.02,Weather View 32 v70,2013-01-27 22:29:00,
2013-01-27 17:34:00,36.0,35.2,30.21,SE,135,4.0,9.0,97,0.00,,,0.03,Weather View 32 v70,2013-01-27 22:34:00,
2013-01-27 17:39:00,36.0,35.5,30.21,South,180,4.0,9.0,98,0.00,,,0.03,Weather View 32 v70,2013-01-27 22:39:00,
2013-01-27 17:44:00,36.0,36.0,30.21,SSE,157,3.0,9.0,100,0.00,,,0.04,Weather View 32 v70,2013-01-27 22:44:00,
2013-01-27 17:49:00,36.0,36.0,30.21,ESE,112,5.0,9.0,100,0.00,,,0.04,Weather View 32 v70,2013-01-27 22:49:00,
2013-01-27 17:54:00,36.0,36.0,30.20,SE,135,3.0,9.0,100,0.00,,,0.05,Weather View 32 v70,2013-01-27 22:54:00,
2013-01-27 17:59:00,36.0,36.0,30.19,ESE,112,6.0,10.0,100,0.05,,,0.05,Weather View 32 v70,2013-01-27 22:59:00,
2013-01-27 18:04:00,36.0,36.0,30.19,ESE,112,7.0,10.0,100,0.06,,,0.06,Weather View 32 v70,2013-01-27 23:04:00,
2013-01-27 18:09:00,36.0,36.0,30.19,ESE,112,5.0,10.0,100,0.05,,,0.06,Weather View 32 v70,2013-01-27 23:09:00,
2013-01-27 18:14:00,36.0,36.0,30.19,SSE,157,5.0,10.0,100,0.05,,,0.06,Weather View 32 v70,2013-01-27 23:14:00,
2013-01-27 18:19:00,36.0,36.0,30.19,SSE,157,5.0,10.0,100,0.05,,,0.06,Weather View 32 v70,2013-01-27 23:19:00,
2013-01-27 18:24:00,36.0,36.0,30.19,SE,135,6.0,10.0,100,0.05,,,0.07,Weather View 32 v70,2013-01-27 23:24:00,
2013-01-27 18:29:00,36.0,36.0,30.19,SE,135,6.0,10.0,100,0.05,,,0.07,Weather View 32 v70,2013-01-27 23:29:00,
2013-01-27 18:34:00,36.0,36.0,30.19,SE,135,6.0,10.0,100,0.04,,,0.07,Weather View 32 v70,2013-01-27 23:34:00,
2013-01-27 18:39:00,36.0,36.0,30.20,SE,135,3.0,10.0,100,0.04,,,0.07,Weather View 32 v70,2013-01-27 23:39:00,
2013-01-27 18:44:00,36.0,36.0,30.20,SE,135,1.0,10.0,100,0.03,,,0.07,Weather View 32 v70,2013-01-27 23:44:00,
2013-01-27 18:49:00,36.0,36.0,30.20,SSE,157,2.0,10.0,100,0.03,,,0.07,Weather View 32 v70,2013-01-27 23:49:00,
2013-01-27 18:54:00,36.0,36.0,30.20,SE,135,2.0,10.0,100,0.02,,,0.07,Weather View 32 v70,2013-01-27 23:54:00,
2013-01-27 18:59:00,36.0,36.0,30.20,South,180,3.0,10.0,100,0.02,,,0.07,Weather View 32 v70,2013-01-27 23:59:00,
2013-01-27 19:04:00,36.0,36.0,30.21,South,180,1.0,10.0,100,0.02,,,0.08,Weather View 32 v70,2013-01-28 00:04:00,
2013-01-27 19:09:00,36.0,36.0,30.20,SE,135,4.0,10.0,100,0.02,,,0.08,Weather View 32 v70,2013-01-28 00:09:00,
2013-01-27 19:14:00,36.0,36.0,30.20,SSE,157,4.0,10.0,100,0.02,,,0.08,Weather View 32 v70,2013-01-28 00:14:00,
2013-01-27 19:19:00,36.0,36.0,30.20,SE,135,3.0,10.0,100,0.02,,,0.08,Weather View 32 v70,2013-01-28 00:19:00,
2013-01-27 19:24:00,36.0,36.0,30.20,SE,135,4.0,10.0,100,0.02,,,0.09,Weather View 32 v70,2013-01-28 00:24:00,
2013-01-27 19:29:00,36.0,36.0,30.20,SE,135,4.0,10.0,100,0.02,,,0.09,Weather View 32 v70,2013-01-28 00:29:00,
2013-01-27 19:34:00,36.0,36.0,30.19,SE,135,5.0,9.0,100,0.02,,,0.09,Weather View 32 v70,2013-01-28 00:34:00,
2013-01-27 19:39:00,36.0,36.0,30.19,SSE,157,2.0,8.0,100,0.03,,,0.10,Weather View 32 v70,2013-01-28 00:39:00,
2013-01-27 19:44:00,36.0,36.0,30.19,SSE,157,2.0,8.0,100,0.04,,,0.11,Weather View 32 v70,2013-01-28 00:44:00,
2013-01-27 19:49:00,36.0,36.0,30.18,SE,135,4.0,8.0,100,0.04,,,0.11,Weather View 32 v70,2013-01-28 00:49:00,
2013-01-27 19:54:00,36.0,36.0,30.18,SE,135,1.0,8.0,100,0.05,,,0.12,Weather View 32 v70,2013-01-28 00:54:00,
2013-01-27 19:59:00,36.0,36.0,30.18,SE,135,0.0,8.0,100,0.05,,,0.12,Weather View 32 v70,2013-01-28 00:59:00,
2013-01-27 20:04:00,36.0,36.0,30.18,SE,135,2.0,8.0,100,-0.08,,,0.13,Weather View 32 v70,2013-01-28 01:04:00,
2013-01-27 20:09:00,37.0,37.0,30.18,SE,135,3.0,8.0,100,-0.08,,,0.13,Weather View 32 v70,2013-01-28 01:09:00,
2013-01-27 20:14:00,37.0,37.0,30.18,SE,135,0.0,8.0,100,-0.08,,,0.14,Weather View 32 v70,2013-01-28 01:14:00,
2013-01-27 20:19:00,37.0,37.0,30.18,SE,135,2.0,8.0,100,-0.08,,,0.14,Weather View 32 v70,2013-01-28 01:19:00,
2013-01-27 20:24:00,37.0,37.0,30.18,ESE,112,2.0,8.0,100,-0.09,,,0.15,Weather View 32 v70,2013-01-28 01:24:00,
2013-01-27 20:29:00,37.0,37.0,30.17,SE,135,3.0,8.0,100,-0.09,,,0.15,Weather View 32 v70,2013-01-28 01:29:00,
2013-01-27 20:34:00,37.0,37.0,30.17,SSE,157,5.0,7.0,100,-0.09,,,0.16,Weather View 32 v70,2013-01-28 01:34:00,
2013-01-27 20:39:00,37.0,37.0,30.17,SE,135,2.0,7.0,100,-0.10,,,0.16,Weather View 32 v70,2013-01-28 01:39:00,
2013-01-27 20:44:00,37.0,37.0,30.17,SE,135,3.0,7.0,100,-0.11,,,0.16,Weather View 32 v70,2013-01-28 01:44:00,
2013-01-27 20:49:00,37.0,37.0,30.17,SE,135,2.0,7.0,100,-0.11,,,0.17,Weather View 32 v70,2013-01-28 01:49:00,
2013-01-27 20:54:00,37.0,37.0,30.17,SSE,157,3.0,7.0,100,-0.12,,,0.17,Weather View 32 v70,2013-01-28 01:54:00,
2013-01-27 20:59:00,37.0,37.0,30.17,SSE,157,3.0,7.0,100,-0.12,,,0.18,Weather View 32 v70,2013-01-28 01:59:00,
2013-01-27 21:04:00,37.0,37.0,30.17,SE,135,2.0,7.0,100,-0.13,,,0.18,Weather View 32 v70,2013-01-28 02:04:00,
2013-01-27 21:09:00,38.0,38.0,30.17,SE,135,3.0,7.0,100,-0.13,,,0.19,Weather View 32 v70,2013-01-28 02:09:00,
2013-01-27 21:14:00,38.0,38.0,30.17,SE,135,2.0,7.0,100,-0.14,,,0.19,Weather View 32 v70,2013-01-28 02:14:00,
2013-01-27 21:19:00,38.0,38.0,30.17,South,180,3.0,7.0,100,-0.14,,,0.20,Weather View 32 v70,2013-01-28 02:19:00,
2013-01-27 21:24:00,38.0,38.0,30.16,SE,135,4.0,7.0,100,0.06,,,0.21,Weather View 32 v70,2013-01-28 02:24:00,
2013-01-27 21:29:00,38.0,38.0,30.16,SSE,157,0.0,7.0,100,0.07,,,0.22,Weather View 32 v70,2013-01-28 02:29:00,
2013-01-27 21:34:00,38.0,38.0,30.16,SE,135,6.0,7.0,100,0.07,,,0.23,Weather View 32 v70,2013-01-28 02:34:00,
2013-01-27 21:39:00,38.0,38.0,30.16,SE,135,3.0,10.0,100,0.08,,,0.24,Weather View 32 v70,2013-01-28 02:39:00,
2013-01-27 21:44:00,39.0,39.0,30.15,SE,135,1.0,10.0,100,0.08,,,0.24,Weather View 32 v70,2013-01-28 02:44:00,
2013-01-27 21:49:00,39.0,39.0,30.15,SSE,157,5.0,10.0,100,0.08,,,0.25,Weather View 32 v70,2013-01-28 02:49:00,
2013-01-27 21:54:00,39.0,39.0,30.14,SE,135,4.0,10.0,100,0.09,,,0.26,Weather View 32 v70,2013-01-28 02:54:00,
2013-01-27 21:59:00,39.0,39.0,30.14,South,180,3.0,11.0,100,0.08,,,0.26,Weather View 32 v70,2013-01-28 02:59:00,
2013-01-27 22:04:00,39.0,39.0,30.14,South,180,3.0,11.0,100,0.08,,,0.26,Weather View 32 v70,2013-01-28 03:04:00,
2013-01-27 22:09:00,40.0,40.0,30.14,South,180,5.0,11.0,100,0.08,,,0.27,Weather View 32 v70,2013-01-28 03:09:00,
2013-01-27 22:14:00,40.0,40.0,30.14,South,180,5.0,11.0,100,0.08,,,0.27,Weather View 32 v70,2013-01-28 03:14:00,
2013-01-27 22:19:00,40.0,40.0,30.13,East,90,3.0,11.0,100,0.07,,,0.27,Weather View 32 v70,2013-01-28 03:19:00,
2013-01-27 22:24:00,40.0,40.0,30.14,SE,135,4.0,11.0,100,0.06,,,0.27,Weather View 32 v70,2013-01-28 03:24:00,
2013-01-27 22:29:00,40.0,40.0,30.14,SSE,157,3.0,11.0,100,0.05,,,0.27,Weather View 32 v70,2013-01-28 03:29:00,
2013-01-27 22:34:00,40.0,40.0,30.14,SSE,157,6.0,11.0,100,0.05,,,0.28,Weather View 32 v70,2013-01-28 03:34:00,
2013-01-27 22:40:00,41.0,41.0,30.13,SE,135,5.0,11.0,100,0.04,,,0.28,Weather View 32 v70,2013-01-28 03:40:00,
2013-01-27 22:45:00,41.0,41.0,30.12,SE,135,3.0,11.0,100,0.04,,,0.28,Weather View 32 v70,2013-01-28 03:45:00,
2013-01-27 22:50:00,41.0,41.0,30.12,SE,135,3.0,11.0,100,0.03,,,0.28,Weather View 32 v70,2013-01-28 03:50:00,
2013-01-27 22:54:00,41.0,41.0,30.12,SE,135,5.0,12.0,100,0.02,,,0.28,Weather View 32 v70,2013-01-28 03:54:00,
2013-01-27 23:00:00,41.0,41.0,30.12,SSE,157,3.0,12.0,100,0.02,,,0.28,Weather View 32 v70,2013-01-28 04:00:00,
2013-01-27 23:05:00,41.0,41.0,30.12,SSE,157,3.0,12.0,100,0.02,,,0.28,Weather View 32 v70,2013-01-28 04:05:00,
2013-01-27 23:10:00,41.0,41.0,30.12,SE,135,4.0,12.0,100,0.01,,,0.28,Weather View 32 v70,2013-01-28 04:10:00,
2013-01-27 23:15:00,42.0,42.0,30.12,South,180,4.0,12.0,100,0.01,,,0.28,Weather View 32 v70,2013-01-28 04:15:00,
2013-01-27 23:19:00,42.0,42.0,30.12,SSE,157,0.0,12.0,100,0.01,,,0.28,Weather View 32 v70,2013-01-28 04:19:00,
2013-01-27 23:25:00,42.0,42.0,30.12,South,180,8.0,12.0,100,0.01,,,0.28,Weather View 32 v70,2013-01-28 04:25:00,
2013-01-27 23:29:00,42.0,42.0,30.12,SSE,157,7.0,12.0,100,0.01,,,0.28,Weather View 32 v70,2013-01-28 04:29:00,
2013-01-27 23:34:00,42.0,42.0,30.12,ESE,112,4.0,12.0,100,0.00,,,0.28,Weather View 32 v70,2013-01-28 04:34:00,
2013-01-27 23:39:00,42.0,42.0,30.12,SE,135,2.0,12.0,100,0.00,,,0.28,Weather View 32 v70,2013-01-28 04:39:00,
2013-01-27 23:44:00,42.0,42.0,30.12,SE,135,2.0,12.0,100,0.00,,,0.28,Weather View 32 v70,2013-01-28 04:44:00,
2013-01-27 23:49:00,42.0,42.0,30.12,SSE,157,5.0,12.0,100,0.00,,,0.28,Weather View 32 v70,2013-01-28 04:49:00,
2013-01-27 23:54:00,42.0,42.0,30.12,SSW,202,4.0,10.0,100,0.00,,,0.28,Weather View 32 v70,2013-01-28 04:54:00,
2013-01-27 23:59:00,43.0,43.0,30.12,SSE,157,6.0,10.0,100,0.00,,,0.00,Weather View 32 v70,2013-01-28 04:59:00,